East London, South Africa

3:05 AM SAST on February 28, 2017 (GMT +0200)
East London

Weather History for FAEL - August, 2013

Change the Weather History Date:

Tuesday, August 6, 2013

  Actual Average Record
Temperature  
Mean Temperature 66 °F -  
Max Temperature 83 °F 67 °F 95 °F (2005)
Min Temperature 49 °F 51 °F 44 °F (1999)
Cooling Degree Days 1    
Growing Degree Days 16 (Base 50)    
Moisture  
Dew Point 43 °F    
Average Humidity 44    
Maximum Humidity 88    
Minimum Humidity 13    
Precipitation  
Precipitation 0.00 in 0.10 in - ()
Sea Level Pressure  
Sea Level Pressure 29.96 in    
Wind  
Wind Speed 6 mph ()    
Max Wind Speed 12 mph    
Max Gust Speed -    
Visibility 6.4 miles    
Events      
Averages and records for this station are not official NWS values.
T = Trace of Precipitation, MM = Missing Value Source: Averaged Metar Reports

Daily Weather History Graph

Daily Weather History Graph

Search for Another Location

Airport or City:

Trip Planner

Search our weather history database for the weather conditions in past years. The results will help you decide how hot, cold, wet, or windy it might be!

Date:

Astronomy

Aug. 06, 2013 Rise Set
Actual Time 6:55 AM SAST 5:34 PM SAST
Civil Twilight 6:29 AM SAST 6:00 PM SAST
Nautical Twilight 5:59 AM SAST 6:29 PM SAST
Astronomical Twilight 5:30 AM SAST 6:58 PM SAST
Moon 6:13 AM SAST (8/6) 5:22 PM SAST (8/6)
Length of Visible Light 11h 30m
Length of Day
10h 39m
Waning Crescent, 0% of the Moon is Illuminated
Aug 6
Waning Crescent
Aug 6
New
Aug 14
First Quarter
Aug 21
Full
Aug 28
Last Quarter

Hourly Weather History & Observations

Time (SAST) Temp. Dew Point Humidity Pressure Visibility Wind Dir Wind Speed Gust Speed Precip Events Conditions
5:00 AM 53.6 °F 39.2 °F 58% 30.01 in - North 9.2 mph - N/A   Clear
6:00 AM 53.6 °F 37.4 °F 54% 30.01 in - NNW 9.2 mph - N/A   Clear
7:00 AM 50.0 °F 37.4 °F 62% 30.01 in - Variable 9.2 mph - N/A   Clear
7:35 AM 53.6 °F 37.4 °F 54% 30.01 in - North 5.8 mph - N/A   Clear
8:00 AM 51 °F 39 °F 54% 30.02 in 6 mi North 6.9 mph - -  
8:00 AM 51.8 °F 39.2 °F 62% 30.01 in - North 6.9 mph - N/A   Clear
8:38 AM 64.4 °F 37.4 °F 37% 30.01 in - North 6.9 mph - N/A   Clear
9:00 AM 66.2 °F 37.4 °F 35% 30.01 in - North 6.9 mph - N/A   Clear
9:18 AM 69.8 °F 39.2 °F 33% 30.01 in - NNW 8.1 mph - N/A   Clear
10:00 AM 75.2 °F 41.0 °F 29% 30.01 in - Variable 2.3 mph - N/A   Clear
10:10 AM 73.4 °F 42.8 °F 33% 30.01 in - East 4.6 mph - N/A   Clear
10:35 AM 77.0 °F 44.6 °F 32% 30.01 in - Variable 1.2 mph - N/A   Clear
10:50 AM 80.6 °F 42.8 °F 26% 29.98 in - Variable 2.3 mph - N/A   Clear
11:00 AM 80.6 °F 42.8 °F 26% 29.98 in - Variable 2.3 mph - N/A   Clear
12:00 PM 82.4 °F 44.6 °F 26% 29.95 in - ENE 6.9 mph - N/A   Clear
1:00 PM 80.6 °F 50.0 °F 34% 29.92 in 6.2 mi East 6.9 mph - N/A   Partly Cloudy
2:00 PM 83 °F 40 °F 13% 29.88 in 12 mi East 6.9 mph - -   Scattered Clouds
2:00 PM 82.4 °F 39.2 °F 21% 29.89 in - East 6.9 mph - N/A   Clear
3:00 PM 78.8 °F 44.6 °F 30% 29.86 in - ENE 8.1 mph - N/A   Clear
4:00 PM 75.2 °F 48.2 °F 38% 29.86 in - ENE 8.1 mph - N/A   Clear
5:00 PM 68.0 °F 55.4 °F 64% 29.86 in - NE 5.8 mph - N/A   Clear
6:00 PM 64.4 °F 51.8 °F 64% 29.86 in - WSW 8.1 mph - N/A   Clear
7:00 PM 59.0 °F 55.4 °F 88% 29.89 in 3.7 mi SW 10.4 mph - N/A   Haze
8:00 PM 57.2 °F 53.6 °F 88% 29.89 in 4.3 mi WSW 11.5 mph - N/A   Clear